sat.trackr.live / text

‹ back to catalog

STARLINK-32953

NORAD 63561 · 2025-075P

PAYLOAD ACTIVE UNKNOWN

§ Identity

Operator
Country
US
Launch date
2025-04-13
Launch site
AFETR
Launch vehicle
Mass (kg)
RCS (m²)

Purposes: comms

External: N2YO · Heavens-Above · Gunter

§ Orbital elements

Epoch: 2026-09-20T15:51:33.200352Z

Period
94.27 min
Inclination
42.9971°
Eccentricity
0.0000708
Mean motion
15.27586663 rev/d
Perigee alt
482.5 km
Apogee alt
483.5 km
Semi-major
6,861.2 km
B*
4.1563e-4
RAAN
249.7135°
Arg perigee
276.8286°
Mean anomaly
83.2485°
Rev number
8,174

§ Raw data

STARLINK-329531 63561U 25075P   26263.66080093  .00011195  00000+0  41563-3 0  99992 63561  42.9971 249.7135 0000708 276.8286  83.2485 15.27586663 81749

JSON: /api/v1/satellites/63561 · /tle

For live sub-satellite position, see the globe view (requires WebGL).

§ Visibility from observer

Set your observer location to see the next 7 days of passes ≥ 10°. The values pass through the URL so the page stays shareable.

No JS? Fill the form by hand. The geolocation button needs JavaScript.